TIME,DELAY(SENSOR),PRES,OXYGEN,RAWTEMP,T(OPTODE),TCPHASE,FLUOR,BETA(BETA700),BETA(BETA412),BETA(BETA440),CDOM,C(CSC),ED(ED412.40),ED(ED444.00),ED(ED489.70),ED(ED554.30),LU(LU411.80),LU(LU443.40),LU(LU489.60),LU(LU554.10),COMP,TILTX,TILTY,CHECK
1347075607,5805,867.6599731445312000,48.2023200988769500,664.4481811523438000,4.4814209938049320,53.8509597778320300,53,100,87,79,81,15301,2147762368,2147421467,2148013065,2147873618,2147640073,2147058861,2148255744,2147198646,3272,5,13,47801
1347079203,5809,944.1099853515625000,50.5947113037109400,671.7440185546875000,4.2405700683593750,53.6091308593750000,53,98,89,79,80,15299,2147758308,2147424420,2148010998,2147875712,2147643181,2147061193,2148260827,2147201938,2993,5,13,28371
1347082803,5807,963.5599975585938000,50.4933395385742200,672.1638793945312000,4.2266898155212400,53.6332397460937500,52,97,86,78,82,15297,2147759753,2147422354,2148011501,2147872201,2147638354,2147058313,2148260955,2147197531,3540,4,13,18432
1347086403,5806,978.3800048828125000,51.6538314819335940,675.7061157226562000,4.1095199584960940,53.5141181945800800,53,98,90,79,81,15303,2147760475,2147424438,2148009883,2147874843,2147644525,2147054948,2148257718,2147199707,3027,5,13,57851
1347090003,5806,985.2500000000000000,51.6641807556152340,676.1892700195312000,4.0935230255126950,53.5181388854980500,52,98,87,80,81,15302,2147760832,2147421312,2148009974,2147873408,2147645595,2147063634,2148262976,2147198637,3484,5,13,3880
1347093603,5807,982.9299926757812000,51.4121398925781250,677.1436767578125000,4.0619220733642580,53.5639305114746100,53,99,90,79,80,15301,2147760612,2147425755,2148011117,2147874404,2147644644,2147058706,2148263853,2147198747,3205,4,13,12432
1347097203,5812,989.7299804687500000,50.7776107788085940,677.0126953125000000,4.0662608146667480,53.6530990600585940,52,97,89,79,80,15304,2147760676,2147424905,2148011145,2147874304,2147645440,2147059117,2148260160,2147202102,81,5,13,24606
1347100803,5809,988.8699951171875000,51.2549591064453100,676.5764770507812000,4.0807042121887210,53.5795707702636700,52,99,91,80,81,15299,2147759003,2147422427,2148013357,2147874724,2147645101,2147060854,2148269165,2147196827,3388,5,13,20396
1347104403,5804,984.3499755859375000,50.2703895568847660,679.4276733398438000,3.9862580299377440,53.7529792785644500,53,101,88,79,82,15298,2147761536,2147421540,2148008667,2147872640,2147645302,2147062765,2148268214,2147197092,766,5,13,61091
1347108003,5811,992.5700073242188000,50.5774993896484400,679.6912841796875000,3.9775218963623047,53.7144508361816400,53,97,89,79,81,15301,2147762194,2147423707,2148013385,2147875382,2147642916,2147056246,2148259739,2147195264,3497,4,13,29568
1347111603,5813,992.9299926757812000,50.5188407897949200,680.1865234375000000,3.9611089229583740,53.7263488769531250,52,101,87,78,80,15300,2147762569,2147423341,2148008137,2147873142,2147642742,2147055323,2148268480,2147196333,92,5,13,54814
1347115203,5807,999.2000122070312000,50.2991714477539060,678.2960815429688000,4.0237522125244140,53.7357711791992200,52,100,86,78,82,15300,2147758208,2147424484,2148012324,2147874258,2147642697,2147062820,2148266139,2147199012,3258,5,13,14746
1347118803,5807,997.7100219726562000,49.8138504028320300,678.4953002929688000,4.0171551704406740,53.8046989440918000,52,96,90,78,81,15274,2147759369,2147422720,2148014345,2147874468,2147642358,2147051437,2148261385,2147196297,122,5,13,10986
1347122403,5804,989.6699829101562000,50.0180587768554700,679.4885864257812000,3.9842400550842285,53.7861595153808600,52,102,90,78,82,15280,2147756736,2147422482,2148007762,2147873947,2147644278,2147060882,2148262774,2147195026,3473,5,13,59862
1347126003,5810,1000.7199707031250000,50.4567909240722660,679.5980224609375000,3.9806160926818848,53.7258987426757800,52,97,89,79,82,15289,2147755620,2147420937,2148011748,2147874907,2147644224,2147062208,2148260278,2147194870,265,5,13,21662
1347129603,5808,999.9299926757812000,49.9612808227539060,678.3895263671875000,4.0206599235534670,53.7782707214355500,52,97,90,80,81,15255,2147759350,2147421147,2148010688,2147872996,2147642688,2147060754,2148262921,2147197513,109,5,13,54235
1347133203,5808,1002.0999755859375000,49.9468498229980500,678.1627197265625000,4.0281720161437990,53.7798385620117200,53,98,90,78,82,15256,2147760457,2147420123,2148011785,2147876141,2147645613,2147057618,2148264923,2147198838,20,5,13,52686
1347136803,5808,990.5900268554688000,50.0698890686035160,680.1380004882812000,3.9627149105072020,53.7880210876464840,53,103,89,80,81,15259,2147762880,2147423451,2148012717,2147874916,2147647341,2147059858,2148264749,2147198528,846,5,13,26687
1347140403,5807,1001.9600219726562000,50.4692993164062500,679.8826293945312000,3.9711821079254150,53.7270202636718750,52,98,91,80,82,15258,2147761362,2147422089,2148010761,2147877430,2147641243,2147061595,2148259483,2147197805,560,4,13,49214
1347144003,5809,1006.9199829101562000,50.0680389404296900,678.3665161132812000,4.0214228630065920,53.7642784118652340,52,98,92,79,81,15256,2147760704,2147422336,2148012242,2147874267,2147645632,2147064530,2148264274,2147195328,3159,5,13,23888
1347147603,5805,1004.5499877929688000,50.2619285583496100,677.2426757812500000,4.0586447715759280,53.7235107421875000,52,99,86,80,81,15255,2147760018,2147421193,2148009270,2147874660,2147643081,2147061010,2148262884,2147195602,3230,5,13,33089
1347151203,5808,997.9199829101562000,49.6520805358886700,679.5922241210938000,3.9808061122894287,53.8400001525878900,53,98,87,79,81,15254,2147763666,2147420717,2148009517,2147876160,2147644443,2147059117,2148262299,2147195529,26,4,13,65001
1347154803,5809,991.4899902343750000,50.1571502685546900,681.0059204101562000,3.9339389801025390,53.7891883850097660,52,99,86,79,82,15253,2147761270,2147424475,2148012269,2147874002,2147645421,2147055286,2148258806,2147195904,821,5,13,46812
1347158403,5808,996.2899780273438000,49.7827796936035160,681.5023193359375000,3.9174790382385254,53.8445892333984400,52,99,89,79,82,15251,2147758464,2147421577,2148010761,2147873481,2147645284,2147055094,2148264173,2147196635,199,5,13,37284
1347162003,5808,990.0999755859375000,50.4753417968750000,681.3502197265625000,3.9225230216979980,53.7485504150390600,53,100,90,79,82,15251,2147759049,2147420260,2148012726,2147874587,2147642075,2147057554,2148256585,2147196946,3207,4,13,35027
1347165603,5808,1007.0300292968750000,50.2529983520507800,680.3281250000000000,3.9564108848571777,53.7639808654785160,53,99,90,79,82,15243,2147761581,2147418450,2148007149,2147873846,2147642166,2147057517,2148262299,2147195574,96,5,13,61724
1347169203,5810,1014.5700073242188000,49.9937515258789060,677.9241943359375000,4.0360741615295410,53.7720909118652340,52,99,88,79,82,15237,2147761883,2147421952,2148009984,2147875392,2147640667,2147059081,2148264137,2147198107,2614,5,13,28644
1347172803,5808,1011.4099731445312000,49.9015312194824200,678.0139160156250000,4.0331020355224610,53.7873497009277340,51,101,88,80,82,15239,2147760018,2147421924,2148009225,2147878226,2147640329,2147062308,2148261312,2147198893,489,4,13,20920
1347176403,5808,1009.9299926757812000,49.1223716735839840,678.1743164062500000,4.0277881622314450,53.8930511474609400,52,99,89,78,81,15221,2147757184,2147421138,2148009188,2147875081,2147644827,2147060187,2148258861,2147195620,3365,4,13,58813
1347180003,5808,1008.7600097656250000,49.8366889953613300,678.2349243164062000,4.0257821083068850,53.7965202331543000,52,101,88,79,82,15231,2147761353,2147421668,2148008557,2147876470,2147640768,2147062016,2148261248,2147197613,3328,4,13,9495
1347183603,5811,1009.7100219726562000,49.4701690673828100,678.4276123046875000,4.0194001197814940,53.8530693054199200,53,97,89,79,82,15229,2147760274,2147424557,2148011794,2147875309,2147642907,2147053147,2148262582,2147197229,631,5,13,3108
1347187203,5809,1011.8499755859375000,49.2800712585449200,678.5114135742188000,4.0166230201721190,53.8754692077636700,53,100,86,78,82,15230,2147758966,2147422390,2148011757,2147875840,2147644736,2147058413,2148263241,2147195977,3423,4,13,6107
1347190803,5811,1001.2999877929688000,49.7480583190918000,679.5900268554688000,3.9808769226074220,53.8238296508789060,51,98,90,80,82,15231,2147763218,2147423250,2148009773,2147871405,2147642121,2147065051,2148261184,2147194093,36,5,13,52859
1347194403,5808,1005.8599853515625000,48.9128799438476560,679.9865722656250000,3.9677329063415527,53.9440193176269500,53,104,87,78,81,15227,2147758875,2147423570,2148008283,2147877110,2147645257,2147060754,2148260617,2147197385,174,5,13,33193
1347198003,5809,999.5900268554688000,49.7669982910156250,680.9937133789062000,3.9343450069427490,53.8396110534668000,52,98,89,81,81,15229,2147762395,2147420827,2148007661,2147874742,2147644909,2147058761,2148255625,2147196041,129,4,13,45820
1347201603,5807,1006.8599853515625000,50.4438095092773440,680.5759887695312000,3.9481930732727050,53.7405891418457000,53,97,88,80,81,15225,2147760987,2147424274,2148010002,2147873865,2147643419,2147063104,2148265325,2147196498,2438,4,13,5014
1347205203,5809,1001.4199829101562000,49.4134292602539060,681.0405273437500000,3.9327909946441650,53.8919715881347660,52,100,88,78,81,15224,2147762075,2147423442,2148010148,2147872484,2147645184,2147064182,2148260763,2147199616,62,5,13,9315
1347208803,5810,1010.5599975585938000,50.4685783386230500,680.0980224609375000,3.9640429019927980,53.7342109680175800,52,119,89,78,81,15220,2147759149,2147423323,2148010861,2147872027,2147644955,2147063259,2148260571,2147196800,3135,5,13,37843
1347212403,5809,1010.0399780273438000,49.3684997558593750,678.2647705078125000,4.0247921943664550,53.8589210510253900,53,99,89,79,82,15224,2147760612,2147422665,2148008685,2147875008,2147643547,2147067894,2148262656,2147196754,169,4,13,20241
1347216003,5806,1014.4400024414062000,48.4707107543945300,678.0930786132812000,4.0304780006408690,53.9808197021484400,53,98,87,79,80,15223,2147760722,2147422006,2148012379,2147875648,2147641956,2147062738,2148257554,2147198902,255,5,13,29135
1347219603,5807,1015.7899780273438000,48.7739791870117200,678.6141967773438000,4.0132160186767580,53.9494895935058600,52,100,88,78,83,15224,2147763008,2147423442,2148011108,2147874048,2147644754,2147063533,2148263195,2147196370,448,5,13,37619
1347220256,5807,1018.2399902343750000,49.3557090759277340,678.3889770507812000,4.0206761360168460,53.8614692687988300,52,100,87,79,82,15286,2147762157,2147420516,2148013302,2147875794,2147644050,2147061549,2148259492,2147193837,474,5,13,20585
